| time (UTC) | temp C | wind direction | speed KPH | gust KPH | rain 1hr cm | rain 24hr cm | rain mn cm | humidity % | barometer mb |
| 20260906090004 | 6 | 325 | 16.1 | 27.4 | 0.00 | 0.05 | 0.00 | 82 | 1003.8 |
| 20260906085404 | 6 | 327 | 17.7 | 30.6 | 0.00 | 0.05 | 0.00 | 82 | 1003.7 |
| 20260906084525 | 6 | 328 | 17.7 | 32.2 | 0.00 | 0.05 | 0.00 | 82 | 1003.7 |
| 20260906083604 | 6 | 327 | 19.3 | 30.6 | 0.00 | 0.05 | 0.00 | 81 | 1003.5 |
| 20260906082704 | 6 | 333 | 16.1 | 30.6 | 0.00 | 0.05 | 0.00 | 82 | 1003.4 |
| 20260906081804 | 6 | 331 | 20.9 | 35.4 | 0.00 | 0.05 | 0.00 | 81 | 1003.4 |
| 20260906080904 | 6 | 330 | 20.9 | 30.6 | 0.00 | 0.05 | 0.00 | 82 | 1003.2 |
| 20260906080004 | 6 | 334 | 16.1 | 33.8 | 0.00 | 0.05 | 0.00 | 82 | 1003.1 |
| 20260906075425 | 6 | 338 | 14.5 | 27.4 | 0.00 | 0.05 | 0.00 | 82 | 1003.0 |
| 20260906074504 | 6 | 331 | 12.9 | 25.7 | 0.00 | 0.05 | 0.00 | 82 | 1002.9 |
| 20260906073604 | 6 | 331 | 16.1 | 32.2 | 0.00 | 0.05 | 0.00 | 82 | 1002.8 |
| 20260906072725 | 6 | 332 | 16.1 | 25.7 | 0.00 | 0.05 | 0.00 | 83 | 1002.7 |
| 20260906071825 | 6 | 329 | 14.5 | 29.0 | 0.00 | 0.05 | 0.00 | 83 | 1002.5 |
| 20260906070904 | 6 | 338 | 11.3 | 24.1 | 0.00 | 0.08 | 0.00 | 83 | 1002.4 |
| 20260906070025 | 6 | 338 | 14.5 | 30.6 | 0.00 | 0.10 | 0.00 | 82 | 1002.3 |
| 20260906065404 | 6 | 333 | 16.1 | 38.6 | 0.00 | 0.10 | 0.00 | 82 | 1002.3 |
| 20260906064504 | 6 | 330 | 16.1 | 27.4 | 0.00 | 0.13 | 0.00 | 83 | 1002.2 |
| 20260906063604 | 6 | 335 | 12.9 | 32.2 | 0.00 | 0.13 | 0.00 | 82 | 1002.0 |
| 20260906062704 | 6 | 335 | 14.5 | 32.2 | 0.00 | 0.15 | 0.00 | 83 | 1002.0 |
| 20260906061804 | 6 | 331 | 20.9 | 33.8 | 0.00 | 0.20 | 0.00 | 82 | 1001.8 |
| 20260906060925 | 6 | 337 | 17.7 | 35.4 | 0.00 | 0.25 | 0.00 | 83 | 1001.8 |
| 20260906060004 | 6 | 339 | 19.3 | 41.8 | 0.00 | 0.28 | 0.00 | 82 | 1001.7 |
| 20260906055404 | 6 | 335 | 17.7 | 33.8 | 0.00 | 0.28 | 0.00 | 82 | 1001.4 |
| 20260906054504 | 6 | 332 | 16.1 | 27.4 | 0.00 | 0.28 | 0.00 | 82 | 1001.5 |
| 20260906053604 | 6 | 335 | 16.1 | 30.6 | 0.00 | 0.28 | 0.00 | 82 | 1001.4 |
| 20260906052704 | 6 | 332 | 16.1 | 30.6 | 0.00 | 0.28 | 0.00 | 82 | 1001.3 |
| 20260906051804 | 5 | 335 | 17.7 | 32.2 | 0.00 | 0.30 | 0.00 | 82 | 1001.2 |
| 20260906050925 | 5 | 333 | 20.9 | 33.8 | 0.00 | 0.30 | 0.00 | 82 | 1001.2 |
| 20260906050004 | 5 | 329 | 19.3 | 38.6 | 0.00 | 0.30 | 0.00 | 82 | 1001.2 |
| 20260906045425 | 5 | 336 | 17.7 | 33.8 | 0.00 | 0.30 | 0.00 | 82 | 1001.2 |
| 20260906044504 | 5 | 331 | 20.9 | 38.6 | 0.00 | 0.30 | 0.00 | 82 | 1001.0 |
| 20260906043604 | 5 | 337 | 14.5 | 30.6 | 0.00 | 0.30 | 0.00 | 83 | 1000.9 |
| 20260906042704 | 5 | 331 | 16.1 | 33.8 | 0.00 | 0.30 | 0.00 | 83 | 1000.8 |
| 20260906041804 | 5 | 329 | 14.5 | 29.0 | 0.00 | 0.30 | 0.00 | 83 | 1000.8 |
| 20260906040904 | 5 | 335 | 14.5 | 30.6 | 0.00 | 0.30 | 0.00 | 83 | 1000.7 |
| 20260906040025 | 5 | 335 | 16.1 | 30.6 | 0.00 | 0.30 | 0.00 | 82 | 1000.6 |
| 20260906035425 | 5 | 333 | 17.7 | 33.8 | 0.00 | 0.30 | 0.00 | 83 | 1000.6 |
| 20260906034504 | 6 | 333 | 17.7 | 35.4 | 0.00 | 0.30 | 0.00 | 82 | 1000.5 |
| 20260906033604 | 6 | 334 | 17.7 | 41.8 | 0.00 | 0.30 | 0.00 | 82 | 1000.4 |
| 20260906032704 | 6 | 329 | 17.7 | 33.8 | 0.00 | 0.30 | 0.00 | 83 | 1000.4 |
| 20260906031804 | 6 | 330 | 16.1 | 27.4 | 0.00 | 0.30 | 0.00 | 83 | 1000.3 |
| 20260906030904 | 6 | 327 | 16.1 | 30.6 | 0.00 | 0.30 | 0.00 | 82 | 1000.1 |
| 20260906030004 | 6 | 325 | 19.3 | 35.4 | 0.00 | 0.30 | 0.00 | 82 | 1000.0 |
| 20260906025425 | 6 | 324 | 19.3 | 30.6 | 0.00 | 0.30 | 0.00 | 82 | 1000.0 |
| 20260906024504 | 6 | 327 | 17.7 | 29.0 | 0.00 | 0.30 | 0.00 | 83 | 999.9 |
| 20260906023604 | 6 | 324 | 19.3 | 29.0 | 0.00 | 0.30 | 0.00 | 83 | 999.9 |
| 20260906022704 | 6 | 324 | 17.7 | 30.6 | 0.00 | 0.30 | 0.00 | 83 | 999.9 |
| 20260906021804 | 6 | 327 | 17.7 | 30.6 | 0.00 | 0.30 | 0.00 | 83 | 999.8 |
| 20260906020904 | 6 | 329 | 16.1 | 27.4 | 0.00 | 0.30 | 0.00 | 84 | 999.7 |
| 20260906020025 | 6 | 326 | 12.9 | 19.3 | 0.00 | 0.30 | 0.00 | 85 | 999.6 |
| 20260906015404 | 6 | 324 | 12.9 | 20.9 | 0.00 | 0.30 | 0.00 | 85 | 999.5 |
| 20260906014504 | 6 | 325 | 14.5 | 22.5 | 0.00 | 0.30 | 0.00 | 86 | 999.5 |
| 20260906013604 | 6 | 326 | 11.3 | 19.3 | 0.00 | 0.30 | 0.00 | 86 | 999.4 |
| 20260906012704 | 6 | 328 | 16.1 | 29.0 | 0.00 | 0.30 | 0.00 | 85 | 999.4 |
| 20260906011825 | 6 | 332 | 12.9 | 24.1 | 0.00 | 0.30 | 0.00 | 86 | 999.3 |
| 20260906010904 | 6 | 326 | 12.9 | 22.5 | 0.00 | 0.30 | 0.00 | 86 | 999.3 |
| 20260906010025 | 6 | 323 | 14.5 | 22.5 | 0.00 | 0.30 | 0.00 | 86 | 999.2 |
| 20260906005404 | 6 | 324 | 12.9 | 22.5 | 0.00 | 0.30 | 0.00 | 86 | 999.2 |
| 20260906004504 | 6 | 318 | 14.5 | 20.9 | 0.00 | 0.30 | 0.00 | 86 | 999.1 |
| 20260906003604 | 6 | 318 | 12.9 | 20.9 | 0.00 | 0.30 | 0.00 | 86 | 999.0 |
| 20260906002703 | 6 | 314 | 11.3 | 20.9 | 0.00 | 0.30 | 0.00 | 87 | 999.0 |
| 20260906001825 | 6 | 314 | 11.3 | 17.7 | 0.00 | 0.30 | 0.00 | 88 | 999.0 |
| 20260906000904 | 5 | 317 | 8.0 | 14.5 | 0.00 | 0.30 | 0.00 | 88 | 998.9 |
| 20260906000004 | 5 | 320 | 8.0 | 14.5 | 0.00 | 0.30 | 0.00 | 88 | 998.8 |
| 20260905235424 | 5 | 320 | 9.7 | 19.3 | 0.00 | 0.30 | 0.00 | 88 | 998.8 |
| 20260905234504 | 5 | 318 | 11.3 | 19.3 | 0.00 | 0.30 | 0.00 | 88 | 998.8 |
| 20260905233604 | 5 | 319 | 11.3 | 19.3 | 0.00 | 0.30 | 0.00 | 87 | 998.7 |
| 20260905232704 | 5 | 316 | 9.7 | 19.3 | 0.00 | 0.30 | 0.00 | 87 | 998.8 |
| 20260905231804 | 5 | 311 | 8.0 | 14.5 | 0.00 | 0.30 | 0.00 | 86 | 998.8 |
| 20260905230925 | 6 | 313 | 8.0 | 12.9 | 0.00 | 0.30 | 0.00 | 86 | 998.8 |
| 20260905230004 | 6 | 314 | 6.4 | 14.5 | 0.00 | 0.30 | 0.00 | 85 | 998.7 |
| 20260905225404 | 6 | 319 | 8.0 | 17.7 | 0.00 | 0.30 | 0.00 | 85 | 998.7 |
| 20260905224504 | 6 | 323 | 9.7 | 19.3 | 0.00 | 0.30 | 0.00 | 84 | 998.8 |
| 20260905223603 | 6 | 326 | 12.9 | 22.5 | 0.00 | 0.30 | 0.00 | 84 | 998.8 |
| 20260905222704 | 6 | 326 | 12.9 | 20.9 | 0.00 | 0.30 | 0.00 | 83 | 998.7 |
| 20260905221803 | 6 | 328 | 12.9 | 19.3 | 0.00 | 0.30 | 0.00 | 82 | 998.7 |
| 20260905220904 | 6 | 329 | 11.3 | 19.3 | 0.00 | 0.30 | 0.00 | 82 | 998.5 |
| 20260905220025 | 6 | 328 | 9.7 | 17.7 | 0.00 | 0.30 | 0.00 | 83 | 998.5 |
| 20260905215425 | 6 | 327 | 9.7 | 20.9 | 0.00 | 0.30 | 0.00 | 83 | 998.5 |
| 20260905214504 | 6 | 329 | 12.9 | 20.9 | 0.00 | 0.30 | 0.00 | 83 | 998.5 |
| 20260905213604 | 6 | 329 | 14.5 | 25.7 | 0.00 | 0.30 | 0.00 | 83 | 998.5 |
| 20260905212704 | 6 | 334 | 12.9 | 24.1 | 0.00 | 0.30 | 0.00 | 84 | 998.5 |
| 20260905211804 | 7 | 330 | 12.9 | 25.7 | 0.00 | 0.30 | 0.00 | 84 | 998.5 |
| 20260905210924 | 7 | 333 | 11.3 | 20.9 | 0.00 | 0.30 | 0.00 | 85 | 998.4 |
| 20260905210026 | 7 | 327 | 12.9 | 24.1 | 0.00 | 0.30 | 0.00 | 85 | 998.3 |
| 20260905205403 | 7 | 330 | 12.9 | 24.1 | 0.00 | 0.30 | 0.30 | 85 | 998.3 |
| 20260905204524 | 7 | 331 | 14.5 | 25.7 | 0.00 | 0.30 | 0.30 | 86 | 998.3 |
| 20260905203625 | 7 | 327 | 12.9 | 19.3 | 0.00 | 0.30 | 0.30 | 87 | 998.2 |
| 20260905202704 | 7 | 332 | 12.9 | 22.5 | 0.00 | 0.30 | 0.30 | 87 | 998.3 |
| 20260905201803 | 7 | 328 | 14.5 | 22.5 | 0.00 | 0.30 | 0.30 | 88 | 998.2 |
| 20260905200924 | 7 | 329 | 16.1 | 24.1 | 0.00 | 0.30 | 0.30 | 88 | 998.1 |
| 20260905200025 | 7 | 326 | 14.5 | 25.7 | 0.00 | 0.30 | 0.30 | 88 | 998.1 |
| 20260905195425 | 7 | 330 | 12.9 | 22.5 | 0.00 | 0.30 | 0.30 | 88 | 998.0 |
| 20260905194504 | 7 | 333 | 12.9 | 22.5 | 0.00 | 0.30 | 0.30 | 88 | 998.0 |
| 20260905193603 | 7 | 333 | 9.7 | 19.3 | 0.00 | 0.30 | 0.30 | 88 | 998.0 |
| 20260905192704 | 7 | 333 | 11.3 | 24.1 | 0.00 | 0.30 | 0.30 | 88 | 997.9 |
| 20260905191803 | 7 | 335 | 12.9 | 25.7 | 0.00 | 0.30 | 0.30 | 88 | 997.9 |
| 20260905190904 | 7 | 329 | 17.7 | 27.4 | 0.00 | 0.30 | 0.30 | 88 | 997.9 |
| 20260905190004 | 7 | 330 | 16.1 | 25.7 | 0.00 | 0.30 | 0.30 | 87 | 997.9 |
| 20260905185403 | 8 | 329 | 12.9 | 22.5 | 0.00 | 0.30 | 0.30 | 87 | 997.9 |
| 20260905184504 | 8 | 333 | 14.5 | 24.1 | 0.00 | 0.30 | 0.30 | 86 | 997.9 |
| 20260905183625 | 8 | 333 | 12.9 | 20.9 | 0.00 | 0.30 | 0.30 | 86 | 997.8 |
| 20260905182703 | 8 | 335 | 14.5 | 22.5 | 0.00 | 0.30 | 0.30 | 86 | 997.6 |
| 20260905181825 | 8 | 335 | 12.9 | 24.1 | 0.00 | 0.30 | 0.30 | 86 | 997.5 |
| 20260905180925 | 8 | 334 | 12.9 | 29.0 | 0.00 | 0.30 | 0.30 | 86 | 997.5 |
| 20260905180004 | 8 | 334 | 12.9 | 29.0 | 0.00 | 0.30 | 0.30 | 86 | 997.5 |
| 20260905175404 | 8 | 332 | 14.5 | 32.2 | 0.00 | 0.30 | 0.30 | 87 | 997.4 |
| 20260905174503 | 8 | 330 | 14.5 | 27.4 | 0.00 | 0.30 | 0.30 | 87 | 997.3 |
| 20260905173603 | 8 | 333 | 14.5 | 27.4 | 0.00 | 0.30 | 0.30 | 87 | 997.2 |
| 20260905172703 | 8 | 331 | 16.1 | 24.1 | 0.00 | 0.30 | 0.30 | 87 | 997.1 |
| 20260905171803 | 8 | 328 | 14.5 | 27.4 | 0.00 | 0.30 | 0.30 | 87 | 996.9 |
| 20260905170904 | 8 | 335 | 11.3 | 19.3 | 0.00 | 0.30 | 0.30 | 86 | 996.8 |
| 20260905170004 | 8 | 331 | 12.9 | 19.3 | 0.00 | 0.30 | 0.30 | 86 | 996.6 |
| 20260905165403 | 8 | 329 | 14.5 | 25.7 | 0.00 | 0.30 | 0.30 | 87 | 996.6 |
| 20260905164503 | 8 | 331 | 11.3 | 22.5 | 0.00 | 0.30 | 0.30 | 87 | 996.5 |
| 20260905163604 | 9 | 334 | 8.0 | 17.7 | 0.00 | 0.30 | 0.30 | 86 | 996.4 |
| 20260905162704 | 9 | 339 | 9.7 | 19.3 | 0.00 | 0.30 | 0.30 | 86 | 996.5 |
| 20260905161824 | 9 | 336 | 14.5 | 27.4 | 0.00 | 0.30 | 0.30 | 85 | 996.3 |
| 20260905160904 | 9 | 336 | 12.9 | 25.7 | 0.00 | 0.30 | 0.30 | 86 | 996.3 |
| 20260905160004 | 10 | 332 | 14.5 | 25.7 | 0.00 | 0.30 | 0.30 | 86 | 996.1 |
| 20260905155403 | 10 | 333 | 11.3 | 24.1 | 0.00 | 0.30 | 0.30 | 87 | 996.0 |
| 20260905154504 | 10 | 328 | 14.5 | 27.4 | 0.00 | 0.30 | 0.30 | 87 | 995.9 |
| 20260905153604 | 10 | 326 | 16.1 | 27.4 | 0.00 | 0.30 | 0.30 | 86 | 995.8 |
| 20260905152704 | 10 | 336 | 9.7 | 22.5 | 0.00 | 0.30 | 0.30 | 86 | 995.7 |
| 20260905151804 | 10 | 335 | 8.0 | 16.1 | 0.00 | 0.30 | 0.30 | 87 | 995.6 |
| 20260905150903 | 10 | 331 | 12.9 | 24.1 | 0.00 | 0.30 | 0.30 | 87 | 995.5 |
| 20260905150025 | 10 | 330 | 16.1 | 22.5 | 0.00 | 0.30 | 0.30 | 88 | 995.4 |
| 20260905145403 | 10 | 330 | 14.5 | 22.5 | 0.00 | 0.30 | 0.30 | 88 | 995.4 |
| 20260905144504 | 10 | 330 | 16.1 | 22.5 | 0.00 | 0.30 | 0.30 | 88 | 995.3 |
| 20260905143603 | 10 | 329 | 16.1 | 27.4 | 0.00 | 0.30 | 0.30 | 88 | 995.2 |
| 20260905142703 | 10 | 329 | 17.7 | 30.6 | 0.00 | 0.30 | 0.30 | 88 | 995.1 |
| 20260905141804 | 10 | 325 | 16.1 | 24.1 | 0.00 | 0.30 | 0.30 | 88 | 995.0 |
| 20260905140904 | 10 | 326 | 12.9 | 24.1 | 0.00 | 0.30 | 0.30 | 90 | 994.8 |
| 20260905140004 | 10 | 331 | 12.9 | 29.0 | 0.00 | 0.30 | 0.30 | 90 | 994.9 |
| 20260905135404 | 10 | 332 | 16.1 | 29.0 | 0.00 | 0.30 | 0.30 | 90 | 994.8 |
| 20260905134504 | 10 | 329 | 17.7 | 29.0 | 0.00 | 0.30 | 0.30 | 89 | 994.8 |
| 20260905133603 | 10 | 330 | 12.9 | 27.4 | 0.00 | 0.30 | 0.30 | 89 | 994.7 |
| 20260905132703 | 10 | 328 | 16.1 | 25.7 | 0.00 | 0.30 | 0.30 | 89 | 994.6 |
| 20260905131825 | 10 | 327 | 17.7 | 27.4 | 0.00 | 0.30 | 0.30 | 89 | 994.6 |
| 20260905130904 | 11 | 326 | 16.1 | 24.1 | 0.00 | 0.30 | 0.30 | 88 | 994.5 |
| 20260905130025 | 11 | 330 | 14.5 | 29.0 | 0.00 | 0.30 | 0.30 | 87 | 994.4 |
| 20260905125403 | 11 | 322 | 16.1 | 25.7 | 0.00 | 0.30 | 0.30 | 87 | 994.4 |
| 20260905124503 | 11 | 319 | 19.3 | 30.6 | 0.00 | 0.30 | 0.30 | 86 | 994.3 |
| 20260905123603 | 11 | 316 | 16.1 | 29.0 | 0.00 | 0.30 | 0.30 | 87 | 994.2 |
| 20260905122703 | 11 | 324 | 17.7 | 29.0 | 0.00 | 0.30 | 0.30 | 88 | 994.1 |
| 20260905121824 | 11 | 322 | 19.3 | 32.2 | 0.00 | 0.30 | 0.30 | 88 | 994.1 |
| 20260905120903 | 11 | 320 | 17.7 | 32.2 | 0.00 | 0.30 | 0.30 | 88 | 993.9 |
| 20260905120004 | 11 | 320 | 17.7 | 32.2 | 0.00 | 0.30 | 0.30 | 89 | 993.8 |
| 20260905115404 | 11 | 322 | 17.7 | 35.4 | 0.00 | 0.30 | 0.30 | 88 | 993.8 |
| 20260905114503 | 12 | 318 | 17.7 | 29.0 | 0.00 | 0.30 | 0.30 | 89 | 993.6 |
| 20260905113604 | 11 | 329 | 17.7 | 29.0 | 0.00 | 0.30 | 0.30 | 89 | 993.6 |
| 20260905112703 | 11 | 328 | 16.1 | 24.1 | 0.00 | 0.30 | 0.30 | 90 | 993.6 |
| 20260905111803 | 12 | 333 | 12.9 | 24.1 | 0.00 | 0.30 | 0.30 | 91 | 993.5 |
| 20260905110903 | 12 | 338 | 12.9 | 24.1 | 0.00 | 0.30 | 0.30 | 91 | 993.4 |
| 20260905110003 | 12 | 340 | 8.0 | 20.9 | 0.00 | 0.30 | 0.30 | 93 | 993.3 |
| 20260905105403 | 11 | 335 | 9.7 | 20.9 | 0.00 | 0.30 | 0.30 | 93 | 993.3 |
| 20260905104503 | 11 | 332 | 9.7 | 20.9 | 0.03 | 0.30 | 0.30 | 95 | 993.2 |
| 20260905103603 | 11 | 329 | 6.4 | 17.7 | 0.05 | 0.30 | 0.30 | 95 | 993.1 |
| 20260905102703 | 11 | 331 | 8.0 | 14.5 | 0.05 | 0.30 | 0.30 | 94 | 993.0 |
| 20260905101824 | 11 | 336 | 4.8 | 12.9 | 0.05 | 0.30 | 0.30 | 95 | 993.0 |
| 20260905100903 | 11 | 338 | 4.8 | 12.9 | 0.05 | 0.30 | 0.30 | 95 | 992.9 |
| 20260905100003 | 10 | 335 | 6.4 | 16.1 | 0.05 | 0.30 | 0.30 | 95 | 992.9 |
| 20260905095403 | 10 | 332 | 9.7 | 19.3 | 0.05 | 0.30 | 0.30 | 95 | 992.9 |
| 20260905094524 | 11 | 328 | 11.3 | 20.9 | 0.03 | 0.28 | 0.28 | 96 | 992.8 |
| 20260905093603 | 11 | 325 | 4.8 | 8.0 | 0.00 | 0.25 | 0.25 | 96 | 992.6 |
| 20260905092703 | 10 | 345 | 6.4 | 16.1 | 0.00 | 0.25 | 0.25 | 96 | 992.7 |
| 20260905091803 | 10 | 330 | 9.7 | 16.1 | 0.00 | 0.25 | 0.25 | 97 | 992.6 |
| 20260905090903 | 10 | 343 | 6.4 | 14.5 | 0.00 | 0.25 | 0.25 | 96 | 992.6 |